Date,TemperatureHighF,TemperatureAvgF,TemperatureLowF,DewpointHighF,DewpointAvgF,DewpointLowF,HumidityHigh,HumidityAvg,HumidityLow,PressureMaxIn,PressureMinIn,WindSpeedMaxMPH,WindSpeedAvgMPH,GustSpeedMaxMPH,PrecipitationSumIn
2013-1-1,45.3,39.6,35.2,41.2,38.4,35.0,99,95,84,29.51,28.95,4,1,9,0.00
2013-1-2,54.1,49.7,42.1,53.9,48.8,-99.9,99,98,96,29.70,29.48,4,-6,52,0.00
2013-1-3,55.4,52.5,51.4,54.9,51.6,-99.9,99,98,98,29.95,29.70,4,-6,12,0.00
2013-1-4,52.7,49.9,43.5,51.2,49.2,43.1,99,97,93,29.99,29.87,4,0,12,0.00
2013-1-5,54.0,50.0,42.3,53.0,49.3,42.0,99,97,93,29.87,29.78,4,1,11,0.00
2013-1-6,52.0,19.8,42.3,50.7,-40.4,-99.9,99,39,93,29.88,29.63,2,-599,5,0.00
2013-1-7,53.2,50.9,32.2,53.0,49.7,-99.9,99,98,95,29.63,29.44,5,1,37,0.07
2013-1-8,54.9,47.5,36.1,53.9,47.0,35.0,99,98,85,29.69,29.42,4,0,9,0.05
2013-1-9,61.0,35.0,28.9,56.7,34.0,28.7,99,97,64,29.67,29.48,0,0,2,0.00
2013-1-10,43.9,37.4,28.4,43.6,37.2,28.2,99,99,99,29.47,29.34,2,0,5,0.07
2013-1-11,46.6,38.2,28.6,46.3,37.9,28.3,99,99,99,29.48,29.22,0,0,1,0.01
2013-1-12,44.4,41.9,33.4,44.2,41.1,31.5,99,97,89,29.49,29.18,3,0,5,0.00
2013-1-13,37.9,33.7,28.2,37.7,33.4,28.0,99,99,94,29.60,29.49,2,0,5,0.06
2013-1-14,46.4,38.9,34.0,42.7,38.4,33.5,99,98,82,29.52,29.31,3,0,10,0.08
2013-1-15,40.1,34.5,29.3,38.4,33.9,28.9,99,98,90,29.37,29.16,2,0,6,0.01
2013-1-16,41.5,39.9,38.3,41.3,39.5,37.3,99,98,95,29.29,29.14,2,0,5,0.14
2013-1-17,47.3,43.2,39.9,46.9,42.2,-99.9,99,98,99,29.28,28.97,4,-7,12,0.02
2013-1-18,41.7,36.7,34.5,41.5,35.9,-99.9,99,98,99,28.96,28.66,6,-4,14,0.52
2013-1-19,38.7,35.9,34.3,38.4,35.6,32.1,99,99,99,29.02,28.71,2,0,6,0.07
2013-1-20,37.2,36.1,34.9,35.0,32.5,30.7,99,87,78,29.00,28.80,2,0,7,0.01
2013-1-21,37.6,34.8,31.3,37.3,33.8,30.9,99,96,82,28.81,28.76,1,0,4,0.25
2013-1-22,124.3,31.0,25.2,41.1,30.2,-99.9,99,98,99,29.17,28.79,0,-5,2,0.04
2013-1-23,40.1,34.4,29.7,39.6,32.0,-99.9,99,97,94,29.28,29.14,2,-10,49,0.00
2013-1-24,43.5,38.2,34.3,42.5,37.4,34.1,99,97,89,29.44,29.28,4,0,8,0.00
2013-1-25,47.3,43.8,40.8,46.7,43.3,40.1,99,98,94,29.34,28.76,6,1,14,0.58
2013-1-26,53.8,44.3,36.0,53.3,43.8,35.7,99,98,91,29.14,28.37,6,1,16,0.08
2013-1-27,53.1,38.5,36.1,52.8,32.6,-99.9,99,91,77,28.88,28.37,172,-46,193,0.22
2013-1-28,52.9,44.8,36.3,48.4,40.8,34.8,99,86,73,28.95,28.50,9,3,22,0.07
2013-1-29,57.7,48.1,43.7,56.5,45.7,-99.9,99,93,85,28.87,28.55,6,-5,18,0.12
2013-1-30,50.4,44.7,41.0,46.0,41.5,37.0,99,89,67,29.24,28.76,7,2,16,0.20
2013-1-31,51.6,44.2,40.3,46.3,40.5,34.5,99,87,70,29.18,28.93,7,3,22,0.26
2013-2-1,44.6,41.0,34.0,44.3,38.0,31.1,99,89,75,29.33,28.86,4,2,12,0.00
2013-2-2,52.2,37.7,30.4,38.9,33.2,28.8,99,85,55,29.71,29.33,2,0,7,0.00
2013-2-3,52.0,46.3,40.3,51.7,43.8,-99.9,99,96,87,29.59,29.25,5,-19,15,0.12
2013-2-4,49.5,43.3,33.6,49.2,39.7,33.2,99,87,71,29.36,29.10,6,3,14,0.14
2013-2-5,45.0,37.8,32.0,42.7,36.0,31.2,99,94,83,29.17,28.86,6,2,14,0.02
2013-2-6,51.4,39.3,32.9,36.9,33.4,30.2,97,80,52,29.71,29.17,4,1,8,0.01
2013-2-7,44.1,36.6,32.2,43.6,36.3,31.9,99,99,96,29.71,29.34,4,0,8,0.19
2013-2-8,46.6,41.7,37.9,46.1,41.3,37.7,99,98,94,29.72,29.62,49,0,5,0.04
2013-2-9,52.2,29.3,40.8,50.1,-6.2,-99.9,99,64,90,29.64,29.11,2,-351,6,0.08
2013-2-10,45.1,42.9,39.9,44.9,42.6,-0.2,99,99,99,29.11,28.26,3,0,8,0.51
2013-2-11,40.8,37.6,38.3,40.6,33.2,-99.9,99,95,99,29.24,28.32,1,-41,7,0.05
2013-2-12,43.0,35.9,37.9,42.5,26.0,-99.9,99,89,99,29.42,28.87,2,-96,5,0.05
2013-2-13,54.0,44.7,32.2,53.5,38.2,-99.9,99,93,98,29.39,28.80,4,-52,52,0.26
2013-2-14,54.5,44.7,39.2,47.8,42.6,38.9,99,93,69,29.46,28.73,4,1,8,0.01
2013-2-15,61.0,44.0,36.9,47.4,40.5,36.6,99,89,52,29.57,29.08,2,0,7,0.01
2013-2-16,63.3,47.1,41.2,57.4,45.0,39.5,99,93,74,29.53,29.09,4,0,10,0.01
2013-2-17,53.8,46.6,41.9,44.9,41.6,35.9,94,83,66,29.47,29.04,5,1,11,0.00
2013-2-18,56.5,44.0,36.7,41.8,37.7,33.7,96,79,57,29.51,29.38,4,1,11,0.00
2013-2-19,57.2,39.1,28.4,45.5,36.1,28.2,99,90,62,29.52,29.45,2,0,7,0.00
2013-2-20,50.7,40.9,33.1,43.4,37.6,32.8,99,89,69,29.57,29.47,4,1,11,0.00
2013-2-21,42.1,37.2,35.4,35.2,29.8,27.0,82,74,63,29.62,29.56,4,1,11,0.00
2013-2-22,37.9,35.7,33.8,29.0,26.5,24.7,75,69,64,29.68,29.58,2,0,5,0.00
2013-2-23,38.1,35.3,33.1,33.9,29.6,25.4,91,80,69,29.76,29.66,2,0,4,0.00
2013-2-24,54.0,35.3,27.5,44.5,32.5,27.1,99,90,56,29.89,29.49,1,0,3,0.01
2013-2-25,58.5,39.3,27.9,42.0,34.0,27.5,99,83,50,30.00,29.50,1,0,4,0.00
2013-2-26,44.2,39.9,30.2,41.0,37.8,29.3,99,92,80,30.09,29.97,3,0,6,0.00
2013-2-27,50.4,42.0,36.1,43.4,39.3,33.8,98,90,74,30.10,29.67,2,0,5,0.00
2013-2-28,49.3,39.4,32.2,45.0,38.3,31.9,99,96,83,30.04,29.92,1,0,4,0.00
2013-3-1,58.6,43.4,32.2,48.5,40.1,31.9,99,89,61,29.95,29.90,2,0,4,0.00
2013-3-2,53.4,38.8,27.5,44.0,35.5,27.3,99,89,63,29.92,29.71,1,0,4,0.00
2013-3-3,58.1,42.8,37.8,42.4,38.2,33.2,98,85,50,29.72,29.47,2,0,5,0.00
2013-3-4,50.4,40.6,32.2,37.9,35.4,31.5,99,82,61,29.47,29.15,3,0,5,0.00
2013-3-5,57.2,39.6,27.7,46.7,37.0,27.4,99,91,64,29.15,28.98,2,0,4,0.00
2013-3-6,49.8,44.9,42.3,49.4,44.6,42.0,99,99,99,28.98,28.87,1,0,3,0.40
2013-3-7,46.6,45.4,44.6,46.3,45.2,44.3,99,99,99,28.87,28.71,3,0,7,0.27
2013-3-8,53.8,47.3,44.6,53.5,47.0,44.3,99,99,99,28.91,28.69,4,0,11,0.09
2013-3-9,46.4,43.6,39.7,46.1,43.4,39.5,99,99,99,29.13,28.91,2,0,7,0.08
2013-3-10,42.6,38.1,33.8,39.5,32.1,18.2,99,80,52,29.36,29.12,4,2,11,0.01
2013-3-11,42.3,33.5,28.9,32.0,22.7,17.1,94,65,46,29.50,29.35,4,2,11,0.00
2013-3-12,48.7,32.7,28.4,34.0,13.3,-99.9,93,62,45,29.53,29.41,2,-100,7,0.80
2013-3-13,124.3,25.0,30.0,39.0,-19.1,-99.9,99,49,54,29.50,29.39,125,-388,125,0.02
2013-3-14,54.3,37.1,28.6,44.2,30.0,-99.9,99,88,70,29.52,29.14,14,-39,14,24.21
2013-3-15,88.0,33.7,33.3,52.2,5.2,-99.9,98,63,35,29.16,28.76,106,-232,106,0.04
2013-3-16,61.2,39.1,9.9,45.0,34.0,-5.0,99,84,41,28.77,28.69,24,0,24,0.00
2013-3-17,46.2,35.7,32.2,45.2,35.4,31.8,99,99,97,28.73,28.53,2,0,6,0.34
2013-3-18,54.9,39.0,33.8,48.1,37.3,-99.9,99,96,72,28.87,28.59,24,-7,8,0.18
2013-3-19,40.1,36.3,33.4,39.8,36.1,33.2,99,99,99,28.94,28.86,1,0,4,0.17
2013-3-20,51.8,38.9,32.5,47.6,37.8,32.1,99,96,78,29.31,28.93,2,0,4,0.01
2013-3-21,44.1,38.8,38.3,39.7,33.6,-99.9,99,91,35,29.31,28.99,4,-25,12,0.58
2013-3-22,41.0,39.9,37.6,40.7,39.7,37.3,99,99,99,29.10,28.93,6,2,15,0.38
2013-3-23,39.4,37.6,36.0,38.9,37.3,35.1,99,99,96,29.34,29.10,3,0,8,0.01
2013-3-24,36.5,35.4,34.3,34.9,30.9,26.9,96,84,72,29.48,29.34,3,1,9,0.00
2013-3-25,41.2,36.7,34.3,29.8,27.2,25.0,75,68,59,29.52,29.48,4,1,11,0.00
2013-3-26,43.7,35.1,32.2,37.4,30.7,25.8,95,84,68,29.52,29.44,3,0,8,0.07
2013-3-27,41.9,34.8,31.5,40.6,32.8,28.6,99,93,80,29.45,29.41,2,0,5,0.22
2013-3-28,46.2,36.0,30.0,40.0,31.2,25.5,99,84,63,29.43,29.34,3,0,8,0.17
2013-3-29,48.4,39.2,34.3,30.3,26.3,24.1,68,60,45,29.34,29.25,3,0,10,0.00
2013-3-30,51.3,40.5,34.3,30.1,25.6,22.0,67,56,39,29.39,29.28,2,0,7,0.00
2013-3-31,44.4,39.3,36.7,31.1,28.3,23.7,74,65,56,29.36,29.25,4,1,11,0.00
2013-4-1,40.6,38.0,35.8,29.9,27.7,25.9,74,66,61,29.36,29.24,3,1,11,0.00
2013-4-2,54.9,40.8,33.4,36.1,28.9,25.2,76,63,45,29.57,29.36,2,0,7,0.00
2013-4-3,55.4,41.8,31.1,35.4,30.3,25.1,92,66,42,29.65,29.56,2,0,8,0.00
2013-4-4,53.6,40.9,29.5,35.3,30.6,27.4,96,69,42,29.64,29.60,3,0,8,0.00
2013-4-5,54.0,39.8,30.2,41.2,31.9,25.5,98,75,44,29.71,29.60,2,0,6,0.01
2013-4-6,59.9,40.9,26.1,37.5,31.1,24.5,96,71,42,29.77,29.65,2,0,5,0.00
2013-4-7,51.1,40.9,31.5,39.3,34.3,27.7,95,78,53,29.65,29.23,4,0,8,0.00
2013-4-8,54.9,45.3,37.4,38.8,36.1,32.3,94,71,52,29.23,28.92,3,0,8,0.00
2013-4-9,49.8,40.7,36.5,41.2,36.1,33.9,99,84,70,29.04,28.90,3,0,8,0.00
2013-4-10,49.5,28.8,36.7,46.8,-2.4,-99.9,99,67,90,29.05,28.88,2,-308,4,0.01
2013-4-11,51.4,44.4,41.7,51.2,43.4,-99.9,99,98,43,28.89,28.68,6,-6,6,0.57
2013-4-12,62.8,44.9,41.2,51.7,35.9,-99.9,99,85,60,29.10,28.69,3,-51,6,6.08
2013-4-13,56.5,47.2,35.8,56.2,46.4,35.5,99,97,83,29.12,28.80,5,1,14,0.02
2013-4-14,61.3,55.0,49.1,55.8,51.2,47.9,99,88,69,28.95,28.82,8,4,21,0.12
2013-4-15,65.3,54.7,50.2,49.5,45.8,-99.9,93,76,48,29.23,28.90,7,3,18,0.00
2013-4-16,63.3,52.8,44.8,48.2,37.7,-99.9,90,61,35,29.34,28.89,9,-10,19,0.02
2013-4-17,61.7,52.1,32.4,56.8,44.7,-99.9,99,83,69,29.31,28.63,8,-10,19,0.05
2013-4-18,57.2,48.2,43.2,47.2,44.5,40.9,99,88,62,29.52,28.68,10,3,21,0.26
2013-4-19,69.6,49.3,37.9,45.0,40.3,-99.9,99,76,38,29.89,29.51,3,-6,8,0.00
2013-4-20,61.0,47.1,35.4,46.2,38.5,-99.9,99,78,52,29.90,29.64,4,-18,11,3.02
2013-4-21,60.3,49.8,43.9,49.8,43.6,39.1,99,81,52,29.65,29.37,4,2,15,0.12
2013-4-22,62.1,51.3,43.7,55.4,48.0,41.0,99,89,66,29.41,29.23,6,2,16,0.01
2013-4-23,68.5,55.5,46.2,53.2,49.4,45.1,99,82,54,29.56,29.36,4,1,10,0.00
2013-4-24,60.6,53.8,45.5,56.6,52.0,45.2,99,94,79,29.67,29.46,4,1,11,0.15
2013-4-25,63.9,49.4,43.0,51.1,44.3,38.5,99,84,49,29.65,29.52,4,0,8,0.25
2013-4-26,55.9,45.0,35.8,45.9,37.2,30.4,99,76,48,29.60,29.47,4,1,11,0.04
2013-4-27,64.0,48.3,37.4,44.0,38.5,34.9,95,70,43,29.62,29.52,4,0,8,0.00
2013-4-28,59.7,48.2,41.5,51.5,41.7,35.7,99,79,54,29.54,29.26,5,2,11,0.02
2013-4-29,63.5,48.5,39.0,47.8,39.1,32.7,97,73,39,29.68,29.33,4,2,11,0.01
2013-4-30,67.6,48.9,35.6,43.5,38.4,34.1,99,70,34,29.79,29.67,2,0,5,0.00
2013-5-1,70.0,52.7,41.5,50.6,42.1,35.8,92,70,34,29.73,29.67,4,1,8,0.00
2013-5-2,65.8,51.4,37.8,48.9,43.4,37.5,99,77,47,29.73,29.55,4,1,10,0.00
2013-5-3,59.9,54.0,48.9,52.1,48.3,45.3,99,82,64,29.56,28.91,6,2,14,0.06
2013-5-4,66.0,53.4,45.5,54.0,45.9,41.5,99,79,45,29.42,28.87,5,2,14,0.04
2013-5-5,68.0,57.9,52.3,54.0,51.8,48.0,99,81,54,29.51,29.41,5,2,12,0.00
2013-5-6,73.8,58.7,50.0,54.5,50.6,47.1,99,77,51,29.51,29.42,3,1,9,0.01
2013-5-7,70.2,56.5,44.8,54.3,49.3,44.5,99,79,53,29.45,29.11,3,0,8,0.00
2013-5-8,63.5,53.3,46.9,58.1,50.1,40.6,99,89,61,29.12,28.72,5,2,14,0.25
2013-5-9,57.0,49.2,46.0,52.4,45.7,39.7,99,88,72,28.98,28.61,7,3,15,0.14
2013-5-10,60.8,51.5,44.8,54.9,45.3,37.1,99,82,45,29.15,28.98,6,2,15,0.08
2013-5-11,57.7,49.1,43.7,49.2,43.2,38.7,99,81,55,29.38,29.10,6,2,12,0.12
2013-5-12,59.0,50.4,42.1,55.3,47.7,39.9,99,91,77,29.40,29.20,5,2,15,0.06
2013-5-13,57.0,47.7,42.3,45.8,40.4,36.3,94,77,53,29.26,29.14,6,2,18,0.05
2013-5-14,66.0,49.4,39.6,44.9,40.3,-0.9,98,74,12,29.14,28.79,6,1,10,0.00
2013-5-15,60.8,47.6,41.4,49.0,40.7,-99.9,99,80,54,28.97,28.84,4,-4,10,0.05
2013-5-16,55.2,46.1,37.8,48.1,41.7,35.1,98,85,62,29.05,28.89,3,0,7,0.02
2013-5-17,65.7,50.8,34.7,51.6,43.4,34.4,99,79,48,29.35,29.05,2,0,6,0.00
2013-5-18,56.7,50.1,45.3,50.4,46.4,39.4,99,88,70,29.34,29.15,3,0,7,0.04
2013-5-19,71.8,57.7,48.4,56.5,51.0,47.5,99,81,52,29.47,29.20,2,0,4,0.00
2013-5-20,61.9,56.2,51.8,57.5,53.8,49.5,99,92,80,29.57,29.44,3,0,8,0.00
2013-5-21,73.2,57.0,48.2,54.6,49.8,47.0,98,79,52,29.62,29.56,3,1,8,0.00
2013-5-22,63.9,53.9,48.0,51.7,44.0,37.2,99,72,46,29.69,29.61,4,1,8,0.00
2013-5-23,58.8,47.2,40.5,44.8,38.6,34.1,95,73,44,29.63,29.51,4,1,13,0.00
2013-5-24,67.3,52.2,42.8,43.9,40.0,35.6,87,65,41,29.65,29.46,3,1,8,0.00
2013-5-25,68.4,55.0,38.8,49.3,43.8,37.7,99,69,43,29.66,29.57,2,0,8,0.00
2013-5-26,71.1,58.1,50.2,55.6,50.2,44.6,99,77,48,29.60,29.20,4,1,13,0.01
2013-5-27,63.9,53.2,46.8,54.0,47.5,-99.9,99,84,51,29.20,28.85,4,-6,13,0.40
2013-5-28,66.6,53.3,43.2,52.1,46.9,42.5,99,80,57,29.10,28.92,2,0,5,0.05
2013-5-29,76.3,59.8,48.0,58.4,51.8,46.5,99,77,49,29.42,29.09,2,0,8,0.17
2013-5-30,79.0,62.8,49.3,55.2,50.2,46.3,91,66,42,29.98,29.27,4,1,10,0.00
2013-5-31,65.3,54.8,47.5,58.1,46.6,-99.9,99,79,61,30.13,29.98,3,-19,8,0.00
2013-6-1,64.6,52.7,43.7,57.0,44.6,-99.9,95,79,64,30.24,30.12,3,-20,10,0.01
2013-6-2,70.3,41.7,48.6,53.8,2.7,-99.9,98,49,24,30.31,30.23,98,-315,146,0.00
2013-6-3,75.9,62.5,54.1,62.0,55.8,49.1,99,80,55,30.35,30.29,2,0,4,0.00
2013-6-4,75.7,62.1,48.4,59.2,51.6,44.6,99,72,37,30.31,30.11,2,0,4,0.00
2013-6-5,73.8,60.4,46.9,58.2,50.6,-99.9,99,74,46,30.11,29.91,2,-6,6,0.00
2013-6-6,72.1,61.7,50.5,58.2,53.5,50.3,99,77,56,30.04,29.93,2,0,8,0.00
2013-6-7,79.7,63.8,47.8,59.5,53.1,47.4,99,72,47,30.08,30.04,2,0,5,0.00
2013-6-8,81.3,64.1,47.7,60.8,52.7,-99.9,99,72,44,30.07,29.89,2,0,4,0.00
2013-6-9,74.8,63.6,49.1,57.2,50.8,45.3,99,67,38,29.90,29.73,2,0,6,0.00
2013-6-10,71.8,59.9,48.2,56.2,50.4,46.8,99,73,49,29.74,29.59,4,1,10,0.11
2013-6-11,70.5,57.1,50.9,69.3,56.6,50.6,99,98,85,29.59,29.06,3,0,7,0.76
2013-6-12,71.1,57.4,53.2,59.1,55.1,53.0,99,93,62,29.50,28.96,2,0,5,0.25
2013-6-13,66.9,56.6,47.8,60.2,52.3,46.2,99,87,55,29.68,29.06,5,1,12,0.08
2013-6-14,65.8,54.7,47.5,57.2,51.9,47.0,99,91,65,29.68,29.18,5,1,13,0.06
2013-6-15,69.8,55.7,45.5,57.6,50.2,45.2,99,84,47,29.52,29.28,6,2,14,0.01
2013-6-16,73.6,56.8,50.9,61.3,53.2,49.6,99,89,55,29.73,29.52,3,1,8,0.12
2013-6-17,70.2,57.4,51.8,63.3,55.6,51.3,99,94,70,29.83,29.72,2,0,4,0.08
2013-6-18,80.2,63.0,46.2,64.2,56.0,46.0,99,80,49,29.80,29.73,2,0,4,0.00
2013-6-19,77.7,63.9,52.5,56.6,52.7,49.4,97,70,45,29.86,29.79,3,0,8,0.00
2013-6-20,78.8,63.6,52.2,59.5,54.4,50.4,99,74,46,29.81,29.57,2,0,6,0.00
2013-6-21,75.0,62.1,54.0,61.0,56.4,50.5,99,84,50,29.64,29.37,4,1,10,0.05
2013-6-22,67.3,57.6,52.9,60.2,54.2,-99.9,99,92,67,29.39,29.20,5,2,12,0.18
2013-6-23,65.1,45.0,9.1,64.2,21.6,-99.9,99,70,63,29.94,29.38,5,-182,157,0.01
2013-6-24,69.4,51.1,-0.4,54.0,33.4,-99.9,99,70,49,30.08,29.94,97,-101,49,15.31
2013-6-25,77.5,55.3,21.9,57.8,39.6,-99.9,99,72,57,30.22,30.07,100,-90,24,0.00
2013-6-26,74.7,63.4,53.8,56.9,53.1,49.5,99,71,48,30.30,30.22,2,0,5,0.00
2013-6-27,64.8,58.1,51.6,64.5,57.4,50.0,99,97,83,30.28,30.04,4,1,9,0.13
2013-6-28,69.3,60.0,54.7,64.3,57.4,-99.9,99,94,82,30.04,29.88,4,-12,12,0.00
2013-6-29,77.2,60.9,52.2,68.1,58.0,50.6,99,91,67,30.03,29.98,4,1,13,0.00
2013-6-30,68.0,60.4,54.3,62.5,55.3,47.5,99,84,65,30.02,29.78,5,2,14,0.02
2013-7-1,71.6,58.5,50.9,53.8,49.7,-99.9,99,76,50,29.80,29.70,3,-6,8,0.01
2013-7-2,65.1,57.4,54.0,64.8,54.1,-99.9,99,92,75,29.70,29.24,4,-14,11,0.20
2013-7-3,71.2,61.4,53.2,64.6,57.9,53.0,99,89,66,29.63,29.29,4,1,10,0.01
2013-7-4,70.3,62.9,54.3,64.9,57.3,49.5,99,83,59,30.28,29.60,4,2,14,0.00
2013-7-5,80.6,63.9,50.5,66.4,55.6,49.7,99,76,54,30.41,30.28,3,0,6,0.00
2013-7-6,87.4,68.6,53.8,65.5,58.7,49.7,98,73,47,30.48,30.36,3,0,6,0.00
2013-7-7,82.2,67.8,61.7,70.1,60.1,-99.9,99,84,64,30.61,30.48,2,-25,97,0.00
2013-7-8,87.8,68.0,57.4,71.5,52.7,-99.9,99,70,41,30.61,30.50,2,-65,12,0.00
2013-7-9,92.8,70.1,51.3,71.4,54.1,-99.9,99,69,34,30.51,30.37,1,-53,3,0.00
2013-7-10,84.4,71.0,57.4,70.2,63.8,57.1,99,80,58,30.39,30.32,2,0,4,0.00
2013-7-11,82.8,70.6,58.1,68.6,62.9,57.8,99,79,56,30.35,30.29,2,0,4,0.00
2013-7-12,91.8,73.7,54.7,67.6,61.5,54.4,99,70,40,30.31,30.25,2,0,3,0.00
2013-7-13,86.7,71.8,60.1,71.4,65.4,59.7,99,82,56,30.36,30.27,2,0,4,0.00
2013-7-14,90.0,70.2,57.4,68.1,61.3,57.1,99,78,39,30.36,30.23,2,0,4,0.00
2013-7-15,74.5,64.3,56.8,61.9,58.1,55.6,99,82,59,30.30,30.25,2,0,6,0.00
2013-7-16,82.6,66.9,55.9,62.9,58.7,-99.9,99,78,49,30.29,30.25,2,-6,7,0.00
2013-7-17,86.9,71.6,62.8,66.3,61.6,57.2,93,73,49,30.37,30.28,2,0,4,0.00
2013-7-18,96.3,68.3,55.9,66.9,51.8,-99.9,99,69,45,30.39,30.35,4,-51,5,0.39
2013-7-19,90.7,73.8,60.1,71.1,66.1,59.8,99,80,50,30.38,30.27,2,0,4,0.00
2013-7-20,84.0,71.8,62.4,69.7,65.4,62.1,99,82,59,30.28,30.19,2,0,4,0.00
2013-7-21,80.2,67.6,60.8,66.0,62.2,59.0,99,84,57,30.19,30.05,1,0,6,0.00
2013-7-22,82.0,70.5,61.5,71.0,66.0,61.2,99,87,66,30.06,29.91,2,0,4,0.00
2013-7-23,79.5,68.9,63.3,70.9,63.7,-99.9,99,86,58,29.92,29.82,3,-6,8,0.05
2013-7-24,76.5,67.9,60.6,64.4,61.8,58.2,99,82,57,29.86,29.80,6,0,7,0.01
2013-7-25,86.0,65.4,59.4,75.2,63.3,-99.9,99,95,57,29.84,29.77,1,-6,4,1.17
2013-7-26,81.3,58.0,55.6,71.8,48.3,-99.9,99,87,26,29.87,29.82,49,-81,100,0.21
2013-7-27,75.0,61.6,52.3,70.6,60.4,52.1,99,96,69,29.85,29.64,1,0,3,0.28
2013-7-28,79.5,61.1,51.1,75.2,54.7,-99.9,99,88,55,29.65,29.56,24,-34,4,0.20
2013-7-29,76.1,64.3,58.8,67.7,59.8,-99.9,99,87,62,29.85,29.60,4,-6,9,0.05
2013-7-30,76.3,64.1,51.8,62.4,56.5,51.5,99,78,50,29.91,29.80,4,1,10,0.00
2013-7-31,69.4,61.5,56.8,69.1,60.8,55.8,99,97,89,29.91,29.69,4,1,9,0.20
2013-8-1,77.0,68.1,64.6,70.5,66.7,64.3,99,95,77,29.72,29.54,4,1,9,0.12
2013-8-2,75.9,65.1,57.4,65.9,60.8,56.0,99,87,57,29.68,29.52,6,1,11,0.27
2013-8-3,74.1,61.3,55.0,61.1,57.2,54.6,99,88,54,29.93,29.67,5,2,13,0.01
2013-8-4,75.9,62.4,52.7,67.9,60.2,52.4,99,93,69,29.94,29.85,2,0,5,0.02
2013-8-5,74.8,63.0,57.0,60.0,56.5,49.8,99,81,52,29.99,29.80,3,0,7,0.05
2013-8-6,73.4,62.4,55.9,60.9,56.9,52.9,99,83,59,30.01,29.93,2,0,6,0.00
2013-8-7,80.1,65.5,51.8,64.1,57.6,51.5,99,79,53,30.04,29.94,2,0,5,0.00
2013-9-3,91.6,64.9,50.9,70.3,53.7,-99.9,99,74,49,30.34,29.57,4,-32,11,0.01
2013-9-4,96.3,63.7,50.9,72.6,54.6,-99.9,99,79,42,30.35,29.26,49,-27,100,0.19
2013-9-6,96.3,67.6,50.9,67.8,58.3,23.0,99,75,43,30.64,29.88,10,1,97,0.00
2013-9-7,53.4,49.3,46.9,52.2,48.7,46.7,99,98,82,29.60,29.54,4,1,9,0.30
2013-9-8,63.9,52.5,44.6,57.9,50.1,44.3,99,92,66,29.67,29.57,3,1,7,0.08
2013-9-9,73.2,53.9,41.5,57.2,49.7,-99.9,99,88,53,29.95,29.66,2,-1,7,0.00
2013-9-10,70.9,57.0,48.2,57.1,52.3,-99.9,99,86,57,30.06,29.94,2,-1,8,0.00
2013-9-11,73.8,57.0,53.1,64.6,56.6,52.8,99,99,73,30.06,29.84,3,1,11,0.01
2013-9-12,65.7,61.4,54.9,65.2,61.2,54.0,99,99,99,29.84,29.68,3,1,8,0.09
2013-9-13,64.0,53.9,50.2,58.7,51.3,48.7,99,91,67,29.85,29.78,2,0,3,0.01
2013-9-14,77.0,54.6,43.9,54.8,47.1,43.4,99,80,41,29.84,29.72,2,0,6,0.00
2013-9-15,63.0,55.6,46.9,62.1,51.7,42.1,99,88,55,29.73,29.17,6,3,16,0.11
2013-9-16,60.3,50.1,45.1,48.7,45.1,43.8,99,84,59,29.35,29.25,6,2,15,0.01
2013-9-17,54.1,50.9,48.2,53.9,49.4,44.5,99,95,83,29.34,29.07,4,0,10,0.38
2013-9-18,60.8,51.8,47.1,54.0,48.5,45.4,99,89,65,29.58,29.19,4,1,11,0.00
2013-9-19,67.6,56.0,48.7,60.5,52.1,47.4,99,88,63,29.62,29.28,5,2,14,0.14
2013-9-20,70.5,56.6,48.9,54.4,50.8,46.7,95,82,54,29.78,29.62,4,0,8,0.00
2013-9-21,78.3,64.8,55.6,69.5,62.0,54.9,99,91,72,29.91,29.74,4,1,11,0.00
2013-9-22,84.4,67.0,58.3,68.4,62.1,58.0,99,86,55,30.02,29.91,3,0,8,0.00
2013-9-23,82.8,64.4,52.0,70.8,61.3,51.5,99,91,66,29.97,29.76,2,0,4,0.00
2013-9-24,75.0,61.0,57.4,69.0,60.2,57.1,99,97,79,29.76,29.61,1,0,4,0.00
2013-9-25,65.3,58.7,56.8,65.0,57.1,-99.9,99,98,99,29.62,29.55,1,-13,2,0.02
2013-9-26,60.4,55.1,56.8,60.0,49.2,-99.9,99,93,35,29.67,29.60,2,-55,4,0.40
2013-9-27,74.5,48.6,56.5,68.3,24.6,-99.9,99,72,74,29.67,29.55,2,-224,3,0.00
2013-9-28,73.8,58.9,52.3,65.3,57.7,52.1,99,96,74,29.55,29.43,2,0,5,0.01
2013-9-29,71.1,59.7,56.1,63.0,57.8,55.8,99,94,70,29.45,29.40,2,0,5,0.00
2013-9-30,61.9,54.7,55.2,61.6,49.0,-99.9,99,94,99,29.41,29.33,2,-54,7,0.04
2013-10-1,60.3,38.4,55.9,58.7,4.3,-99.9,99,65,35,29.37,29.31,3,-337,103,0.24
2013-10-2,68.0,59.0,58.3,67.2,56.0,-99.9,99,96,99,29.31,29.28,2,-27,7,0.17
2013-10-3,63.3,60.8,59.0,63.0,60.6,58.7,99,99,99,29.31,29.20,2,0,6,0.41
2013-10-4,65.8,51.2,52.9,65.0,38.2,-99.9,99,86,94,29.64,29.23,97,-126,97,0.04
2013-10-5,74.1,58.1,51.1,64.4,53.0,-99.9,99,88,63,29.87,29.64,4,-19,8,0.01
2013-10-6,69.8,62.4,53.4,68.1,61.4,51.9,99,97,88,29.86,29.81,4,1,9,0.01
2013-10-7,69.1,56.2,61.3,65.4,42.6,-99.9,99,84,84,29.84,29.75,4,-123,11,0.00
2013-10-8,67.5,59.6,54.3,61.4,57.9,54.0,99,95,72,30.00,29.79,3,1,8,0.00
2013-10-9,62.1,51.8,43.0,53.9,48.1,38.3,99,89,57,30.00,29.88,4,1,11,0.00
2013-10-10,65.1,47.3,38.1,48.0,42.0,37.9,99,84,51,30.09,29.96,2,0,7,0.00
2013-10-11,59.9,50.3,40.3,55.1,48.4,40.0,99,93,81,30.10,30.06,2,0,7,0.00
2013-10-12,55.6,52.8,50.5,53.9,52.0,49.5,99,97,90,30.06,29.86,2,0,7,0.00
2013-10-13,56.3,51.9,47.5,53.3,51.1,47.1,99,97,84,29.87,29.66,1,0,4,0.00
2013-10-14,60.4,50.2,44.2,55.7,48.8,44.0,99,95,74,29.66,29.57,2,0,5,0.01
2013-10-15,68.7,50.2,38.7,58.8,48.2,38.4,99,94,66,29.60,29.55,2,0,4,0.00
2013-10-16,59.0,52.8,50.5,58.7,52.5,50.3,99,99,96,29.55,29.24,4,1,11,0.02
2013-10-17,71.4,52.2,48.0,61.8,45.5,-99.9,99,89,68,29.58,29.41,2,-49,12,0.00
2013-10-18,56.8,54.4,50.9,56.6,53.5,-99.9,99,98,99,29.58,29.16,4,-6,10,0.57
2013-10-19,63.5,55.8,51.8,62.5,55.5,51.3,99,99,97,29.16,29.10,4,0,14,0.19
2013-10-20,64.0,54.5,50.4,60.6,52.8,-99.9,99,96,78,29.23,28.97,4,-5,12,0.06
2013-10-21,61.9,54.6,46.2,61.4,54.3,46.0,99,99,99,29.24,28.90,4,0,11,0.38
2013-10-22,68.4,48.5,53.8,64.5,31.5,-99.9,99,82,83,28.92,28.72,3,-165,8,0.01
2013-10-23,60.3,51.8,41.2,54.6,48.9,40.4,99,91,61,29.44,28.72,4,1,11,0.02
2013-10-24,66.2,51.3,40.1,63.2,49.7,-99.9,99,97,88,29.53,29.31,2,0,5,0.05
2013-10-25,66.6,57.4,54.5,64.5,56.9,54.2,99,98,90,29.31,29.04,4,1,10,0.24
2013-10-26,57.9,49.9,48.6,55.6,44.4,-99.9,99,93,85,29.21,28.88,5,-47,13,0.27
2013-10-27,59.0,52.3,49.3,55.6,51.1,48.3,99,96,82,30.06,28.73,8,3,18,0.12
2013-11-21,41.5,38.3,34.9,35.8,31.4,-99.9,93,81,76,29.43,29.27,2,-22,4,0.00
2013-11-22,58.1,36.4,30.4,47.1,34.0,-99.9,99,93,62,29.61,29.43,3,-6,4,0.00
2013-11-23,43.7,37.9,28.8,43.4,36.6,-99.9,99,98,99,29.74,29.60,2,-10,4,3.02
2013-11-24,47.7,41.8,43.2,47.4,35.5,-99.9,99,93,98,29.96,29.73,2,-61,4,0.00
2013-11-25,89.1,43.6,41.9,88.7,42.2,-99.9,99,96,78,30.07,29.96,1,-3,3,0.00
2013-11-26,48.0,44.2,40.5,47.6,43.9,40.2,99,99,96,30.07,29.96,2,0,7,0.00
2013-11-27,49.3,46.2,41.2,49.0,45.9,40.9,99,99,99,29.96,29.90,2,0,4,0.00
2013-11-28,51.8,46.4,22.3,51.5,43.2,-99.9,99,96,33,29.95,29.83,97,-28,6,0.02
2013-11-29,48.4,46.2,41.7,47.4,45.5,41.5,99,97,90,29.83,29.66,4,1,11,0.00
2013-11-30,55.4,39.6,37.0,52.2,31.1,-99.9,99,90,82,29.82,29.71,2,-81,5,0.01
2013-12-1,51.6,45.6,44.4,51.3,42.6,-99.9,99,96,99,29.88,29.81,2,-27,3,0.00
2013-12-2,90.1,46.1,42.4,89.8,45.8,42.0,99,99,95,29.86,29.70,1,0,3,0.01
2013-12-3,49.8,46.5,41.5,49.0,46.1,41.3,99,99,95,29.71,29.54,4,1,10,0.01
2013-12-4,50.9,40.5,34.7,45.0,39.7,34.4,99,97,78,29.80,29.60,4,1,9,0.00
2013-12-5,50.7,44.5,39.2,49.9,42.1,38.4,99,91,80,29.70,29.34,8,3,19,0.04
2013-12-6,50.4,43.3,36.1,49.9,43.0,35.9,99,99,97,29.68,29.62,2,1,8,0.01
2013-12-7,49.1,46.0,43.7,48.8,45.8,43.4,99,99,99,29.62,29.42,4,1,10,0.01
2013-12-8,52.7,49.8,45.0,52.0,49.4,44.7,99,98,96,29.44,29.38,5,2,14,0.00
2013-12-9,56.5,50.3,44.4,51.0,48.0,44.2,99,92,79,29.53,29.42,5,1,12,0.00
2013-12-10,55.4,53.9,52.2,54.8,51.6,46.9,99,92,76,29.51,29.43,5,2,13,0.00
2013-12-11,55.2,52.5,49.1,54.0,48.6,43.2,99,87,70,29.51,29.28,4,1,11,0.00
2013-12-12,60.1,57.2,54.7,59.8,56.7,51.2,99,98,87,29.29,29.15,6,2,13,0.00
2013-12-13,57.4,51.0,40.1,56.9,48.3,38.3,99,91,72,29.33,29.02,5,2,14,0.01
2013-12-14,54.1,49.0,39.7,53.9,47.5,38.2,99,95,83,30.49,28.81,8,3,18,0.31
2013-12-15,54.9,48.5,42.4,53.5,46.7,38.8,99,93,83,30.21,29.86,5,2,13,0.13
2013-12-16,48.6,43.0,39.7,48.3,41.7,38.3,99,95,86,30.36,29.87,4,1,13,0.45
2013-12-17,48.9,42.9,35.8,45.0,38.7,-99.9,99,87,75,30.41,29.96,193,2,193,0.00
2013-12-18,55.6,49.4,39.7,55.1,47.9,37.6,99,94,84,29.96,29.07,6,3,17,0.37
2013-12-19,42.8,36.9,34.7,40.1,35.4,-99.9,99,97,86,29.98,29.41,5,-7,14,0.02
2013-12-20,52.7,41.7,36.3,52.4,29.3,-99.9,99,85,89,30.15,29.67,8,-113,20,0.22
2013-12-21,49.5,44.3,39.4,48.1,41.7,-99.9,99,93,81,29.91,29.53,6,-7,15,0.35
2013-12-22,41.5,37.4,34.3,40.9,34.6,-99.9,99,96,91,29.97,29.73,5,-20,12,0.14
2013-12-23,53.2,46.7,37.0,53.0,44.7,-99.9,99,95,76,29.91,28.65,6,-3,18,0.04
2013-12-24,43.5,39.7,36.3,40.2,35.2,29.7,99,85,65,29.00,28.67,7,3,18,0.21
2013-12-25,51.6,36.6,29.5,42.9,35.0,29.2,99,94,70,29.41,28.99,3,0,6,0.21
2013-12-26,49.8,40.5,32.0,49.5,39.4,31.8,99,96,86,29.64,28.75,7,1,18,0.15
2013-12-27,48.0,43.6,37.8,45.6,41.9,37.5,99,94,80,29.33,28.61,9,4,20,0.26
2013-12-28,44.8,34.3,-1.3,42.7,23.0,-99.9,99,88,83,29.98,29.34,49,-73,49,0.01
2013-12-29,51.4,42.5,34.5,51.2,41.4,34.3,99,96,83,30.16,29.72,5,2,11,0.06
2013-12-30,51.6,45.0,40.1,51.3,44.7,39.8,99,99,94,29.92,29.54,4,1,11,0.01
2013-12-31,48.9,43.7,39.4,47.7,42.6,38.7,99,96,79,29.71,29.44,5,1,10,0.04
2014-1-1,50.4,42.9,38.3,50.1,41.9,-99.9,99,98,98,29.53,28.88,5,-6,14,0.04
2014-1-2,50.9,43.9,41.0,50.3,38.5,-99.9,99,90,78,29.43,29.08,6,-34,13,0.04